CHH405 ZBAA-UHWW

Flight info

Callsign CHH405
Flight time 1h 54m
Altitude 35100
Route K0845S1010 DOTRA5Y DOTRA B334 NIRUG/K0843S1070 B334 TGO G341 WQG B451 SANAR SANAR2M
Aircraft B38M/M-SDE1FGHILORVWXY/HB1

Departure

Time 2026-05-09 11:26
Airport Beijing Capital International Airport (ZBAA)

Arrival

Time 2026-05-09 13:20
Airport Vladivostok International Airport (UHWW)
Time Latitude Longitude Altitude Speed Heading
2026-05-09 10:54 40.07521 116.58947 129 ft 0 kts 353°
2026-05-09 11:13 40.07517 116.58947 121 ft 3 kts 353°
2026-05-09 11:13 40.07490 116.58952 123 ft 4 kts 353°
2026-05-09 11:13 40.07468 116.58955 126 ft 3 kts 352°
2026-05-09 11:13 40.07445 116.58966 126 ft 4 kts 313°
2026-05-09 11:14 40.07437 116.58994 125 ft 3 kts 265°
2026-05-09 11:14 40.07437 116.59000 124 ft 2 kts 263°
2026-05-09 11:18 40.07437 116.59001 124 ft 2 kts 261°
2026-05-09 11:18 40.07449 116.59005 122 ft 1 kts 91°
2026-05-09 11:19 40.07447 116.59017 121 ft 2 kts 97°
2026-05-09 11:19 40.07444 116.59046 123 ft 4 kts 97°
2026-05-09 11:19 40.07444 116.59089 124 ft 5 kts 86°
2026-05-09 11:19 40.07450 116.59143 123 ft 7 kts 83°
2026-05-09 11:20 40.07457 116.59211 125 ft 8 kts 82°
2026-05-09 11:20 40.07470 116.59291 125 ft 9 kts 70°
2026-05-09 11:20 40.07479 116.59376 126 ft 9 kts 96°
2026-05-09 11:20 40.07439 116.59430 123 ft 9 kts 158°
2026-05-09 11:21 40.07374 116.59473 126 ft 13 kts 149°
2026-05-09 11:21 40.07291 116.59515 125 ft 13 kts 173°
2026-05-09 11:21 40.07199 116.59524 124 ft 14 kts 175°
2026-05-09 11:21 40.07095 116.59536 124 ft 16 kts 174°
2026-05-09 11:22 40.06978 116.59558 123 ft 18 kts 174°
2026-05-09 11:22 40.06853 116.59576 125 ft 19 kts 173°
2026-05-09 11:22 40.06717 116.59598 124 ft 20 kts 173°
2026-05-09 11:22 40.06571 116.59620 124 ft 22 kts 173°
2026-05-09 11:23 40.06419 116.59643 123 ft 23 kts 173°
2026-05-09 11:23 40.06258 116.59669 124 ft 24 kts 173°
2026-05-09 11:23 40.06091 116.59696 124 ft 25 kts 173°
2026-05-09 11:23 40.05918 116.59725 124 ft 26 kts 172°
2026-05-09 11:24 40.05739 116.59749 126 ft 26 kts 172°
2026-05-09 11:24 40.05642 116.59836 125 ft 12 kts 86°
2026-05-09 11:24 40.05655 116.59940 126 ft 12 kts 82°
2026-05-09 11:24 40.05699 116.59991 127 ft 7 kts
2026-05-09 11:25 40.05746 116.59983 125 ft 8 kts 352°
2026-05-09 11:25 40.05845 116.59968 125 ft 23 kts 354°
2026-05-09 11:25 40.06289 116.59900 123 ft 106 kts 353°
2026-05-09 11:25 40.07276 116.59750 135 ft 176 kts 354°
2026-05-09 11:26 40.08662 116.59532 339 ft 223 kts 353°
2026-05-09 11:26 40.10258 116.59265 760 ft 231 kts 353°
2026-05-09 11:26 40.11845 116.59018 1158 ft 229 kts 353°
2026-05-09 11:26 40.13429 116.58771 1600 ft 230 kts 353°
2026-05-09 11:27 40.15023 116.58522 2038 ft 231 kts 353°
2026-05-09 11:27 40.16623 116.58272 2479 ft 232 kts 354°
2026-05-09 11:27 40.18228 116.58019 2909 ft 233 kts 354°
2026-05-09 11:27 40.19844 116.57765 3329 ft 235 kts 354°
2026-05-09 11:28 40.21459 116.57509 3764 ft 239 kts 352°
2026-05-09 11:28 40.23117 116.57247 4196 ft 242 kts 351°
2026-05-09 11:28 40.24800 116.56979 4618 ft 248 kts 349°
2026-05-09 11:28 40.26574 116.56678 5026 ft 266 kts 349°
2026-05-09 11:29 40.28444 116.56364 5464 ft 275 kts 349°
2026-05-09 11:29 40.30354 116.56043 5906 ft 278 kts 348°
2026-05-09 11:29 40.32280 116.55718 6338 ft 280 kts 347°
2026-05-09 11:29 40.34211 116.55394 6729 ft 280 kts 347°
2026-05-09 11:30 40.36140 116.55071 7132 ft 280 kts 347°
2026-05-09 11:30 40.38072 116.54745 7541 ft 280 kts 347°
2026-05-09 11:30 40.40005 116.54418 7944 ft 280 kts 346°
2026-05-09 11:30 40.41930 116.54099 8363 ft 280 kts 348°
2026-05-09 11:31 40.43909 116.54138 8791 ft 288 kts 357°
2026-05-09 11:31 40.45913 116.54305 9252 ft 290 kts 356°
2026-05-09 11:31 40.47929 116.54460 9684 ft 291 kts 356°
2026-05-09 11:31 40.49952 116.54610 10065 ft 291 kts 356°
2026-05-09 11:32 40.51980 116.54828 10465 ft 297 kts
2026-05-09 11:32 40.53921 116.55868 10831 ft 309 kts 29°
2026-05-09 11:32 40.55591 116.57698 11286 ft 314 kts 36°
2026-05-09 11:32 40.57275 116.59526 11760 ft 315 kts 34°
2026-05-09 11:33 40.58972 116.61373 12209 ft 321 kts 35°
2026-05-09 11:33 40.60727 116.63308 12650 ft 337 kts 36°
2026-05-09 11:33 40.64460 116.67485 13595 ft 366 kts 37°
2026-05-09 11:34 40.66432 116.69705 13999 ft 379 kts 37°
2026-05-09 11:34 40.68469 116.71995 14372 ft 391 kts 37°
2026-05-09 11:34 40.70558 116.74348 14780 ft 400 kts 37°
2026-05-09 11:34 40.72696 116.76769 15198 ft 410 kts 37°
2026-05-09 11:35 40.75031 116.78933 15592 ft 410 kts 22°
2026-05-09 11:35 40.77727 116.80064 16011 ft 407 kts
2026-05-09 11:35 40.80534 116.80347 16473 ft 407 kts 359°
2026-05-09 11:35 40.83368 116.80546 16901 ft 408 kts 359°
2026-05-09 11:36 40.86207 116.80721 17342 ft 409 kts 358°
2026-05-09 11:36 40.89058 116.80880 17790 ft 411 kts 358°
2026-05-09 11:36 40.91931 116.81036 18224 ft 413 kts 358°
2026-05-09 11:36 40.94811 116.81185 18615 ft 416 kts 358°
2026-05-09 11:37 40.97726 116.81337 19001 ft 420 kts 358°
2026-05-09 11:37 41.00653 116.81489 19413 ft 422 kts 358°
2026-05-09 11:37 41.03555 116.81641 19820 ft 425 kts 358°
2026-05-09 11:37 41.06554 116.81797 20263 ft 427 kts 358°
2026-05-09 11:38 41.09493 116.81950 20659 ft 430 kts 358°
2026-05-09 11:38 41.12492 116.82107 20974 ft 433 kts 358°
2026-05-09 11:38 41.15542 116.82267 21296 ft 434 kts 358°
2026-05-09 11:38 41.18567 116.82425 21642 ft 436 kts 358°
2026-05-09 11:39 41.21609 116.82585 21981 ft 439 kts 358°
2026-05-09 11:39 41.24662 116.82745 22323 ft 441 kts 358°
2026-05-09 11:39 41.27738 116.82907 22658 ft 443 kts 358°
2026-05-09 11:40 41.33888 116.83231 23336 ft 448 kts 358°
2026-05-09 11:40 41.37006 116.83394 23694 ft 449 kts 358°
2026-05-09 11:40 41.40185 116.83562 23988 ft 453 kts 358°
2026-05-09 11:40 41.43297 116.83726 24284 ft 455 kts 358°
2026-05-09 11:41 41.46468 116.83895 24593 ft 457 kts 358°
2026-05-09 11:41 41.49658 116.84063 24905 ft 460 kts 358°
2026-05-09 11:41 41.52865 116.84233 25212 ft 462 kts 358°
2026-05-09 11:41 41.56080 116.84404 25531 ft 464 kts 358°
2026-05-09 11:42 41.59313 116.84577 25863 ft 466 kts 358°
2026-05-09 11:42 41.62561 116.84748 26181 ft 468 kts 358°
2026-05-09 11:42 41.65811 116.85340 26479 ft 476 kts 12°
2026-05-09 11:42 41.68858 116.87108 26813 ft 483 kts 28°
2026-05-09 11:43 41.71454 116.89993 27164 ft 489 kts 45°
2026-05-09 11:43 41.73396 116.93744 27569 ft 493 kts 60°
2026-05-09 11:43 41.74863 116.97901 27995 ft 494 kts 62°
2026-05-09 11:43 41.76331 117.02060 28351 ft 493 kts 62°
2026-05-09 11:44 41.77783 117.06222 28736 ft 493 kts 62°
2026-05-09 11:44 41.79226 117.10379 29133 ft 492 kts 62°
2026-05-09 11:44 41.80665 117.14530 29512 ft 491 kts 63°
2026-05-09 11:44 41.82099 117.18676 29903 ft 490 kts 63°
2026-05-09 11:45 41.83528 117.22812 30250 ft 489 kts 63°
2026-05-09 11:45 41.84955 117.26948 30587 ft 488 kts 63°
2026-05-09 11:45 41.85897 117.29683 30814 ft 488 kts 63°
2026-05-09 11:45 41.87799 117.35213 31263 ft 487 kts 63°
2026-05-09 11:46 41.89215 117.39335 31626 ft 486 kts 63°
2026-05-09 11:46 41.90151 117.42063 31855 ft 485 kts 63°
2026-05-09 11:46 41.91559 117.46173 32211 ft 484 kts 62°
2026-05-09 11:46 41.92961 117.50273 32567 ft 483 kts 62°
2026-05-09 11:47 41.94357 117.54361 32919 ft 482 kts 62°
2026-05-09 11:47 41.95756 117.58460 33061 ft 484 kts 62°
2026-05-09 11:47 41.97159 117.62583 33019 ft 484 kts 62°
2026-05-09 11:48 41.99953 117.70806 33029 ft 484 kts 62°
2026-05-09 11:48 42.02742 117.79038 33014 ft 484 kts 63°
2026-05-09 11:49 42.05528 117.87281 33037 ft 484 kts 63°
2026-05-09 11:49 42.08304 117.95525 33019 ft 483 kts 63°
2026-05-09 11:50 42.11072 118.03765 33040 ft 483 kts 62°
2026-05-09 11:50 42.13843 118.12038 33031 ft 485 kts 62°
2026-05-09 11:51 42.16612 118.20332 33043 ft 485 kts 62°
2026-05-09 11:51 42.19474 118.28480 33045 ft 483 kts 59°
2026-05-09 11:52 42.22449 118.36621 33011 ft 483 kts 60°
2026-05-09 11:52 42.25404 118.44773 33018 ft 484 kts 60°
2026-05-09 11:53 42.28356 118.52940 33043 ft 485 kts 60°
2026-05-09 11:53 42.31318 118.61160 33017 ft 487 kts 60°
2026-05-09 11:54 42.34278 118.69400 33016 ft 488 kts 60°
2026-05-09 11:54 42.37235 118.77651 33022 ft 488 kts 60°
2026-05-09 11:55 42.40181 118.85899 33027 ft 485 kts 60°
2026-05-09 11:56 42.48934 119.10547 33024 ft 484 kts 60°
2026-05-09 11:57 42.51833 119.18761 33030 ft 481 kts 60°
2026-05-09 11:57 42.54710 119.26934 33025 ft 480 kts 60°
2026-05-09 11:58 42.57581 119.35113 33011 ft 479 kts 60°
2026-05-09 11:58 42.60434 119.43268 33005 ft 478 kts 60°
2026-05-09 11:59 42.63279 119.51424 33006 ft 478 kts 59°
2026-05-09 11:59 42.66117 119.59582 33009 ft 478 kts 59°
2026-05-09 12:00 42.68951 119.67752 33008 ft 478 kts 60°
2026-05-09 12:00 42.71778 119.75929 33009 ft 478 kts 60°
2026-05-09 12:01 42.74605 119.84127 33011 ft 479 kts 59°
2026-05-09 12:01 42.77425 119.92331 33014 ft 479 kts 59°
2026-05-09 12:02 42.80242 120.00551 33013 ft 479 kts 59°
2026-05-09 12:02 42.83053 120.08777 33009 ft 479 kts 59°
2026-05-09 12:03 42.85840 120.16957 33037 ft 479 kts 59°
2026-05-09 12:03 42.88639 120.25200 33035 ft 479 kts 60°
2026-05-09 12:04 42.91438 120.33459 33036 ft 480 kts 60°
2026-05-09 12:04 42.94232 120.41726 33042 ft 480 kts 60°
2026-05-09 12:05 42.97058 120.49966 33048 ft 478 kts 58°
2026-05-09 12:05 42.99991 120.58130 33047 ft 479 kts 58°
2026-05-09 12:06 43.01449 120.62216 33047 ft 479 kts 58°
2026-05-09 12:06 43.05621 120.73945 33080 ft 479 kts 58°
2026-05-09 12:07 43.08522 120.82129 33057 ft 478 kts 58°
2026-05-09 12:07 43.11412 120.90306 33057 ft 478 kts 59°
2026-05-09 12:08 43.14305 120.98517 33048 ft 478 kts 59°
2026-05-09 12:08 43.17189 121.06727 33083 ft 478 kts 59°
2026-05-09 12:09 43.20056 121.14913 33054 ft 476 kts 59°
2026-05-09 12:09 43.22917 121.23106 33058 ft 477 kts 59°
2026-05-09 12:10 43.28625 121.39524 33082 ft 476 kts 59°
2026-05-09 12:11 43.31460 121.47715 33065 ft 474 kts 59°
2026-05-09 12:11 43.34281 121.55892 33064 ft 474 kts 59°
2026-05-09 12:12 43.37101 121.64087 33069 ft 474 kts 59°
2026-05-09 12:12 43.39912 121.72281 33089 ft 474 kts 60°
2026-05-09 12:13 43.42711 121.80467 33072 ft 472 kts 60°
2026-05-09 12:13 43.45485 121.88604 33077 ft 473 kts 60°
2026-05-09 12:14 43.48270 121.96799 33078 ft 473 kts 60°
2026-05-09 12:14 43.51048 122.04994 33092 ft 472 kts 60°
2026-05-09 12:15 43.53820 122.13188 33080 ft 472 kts 60°
2026-05-09 12:15 43.56029 122.21704 33045 ft 479 kts 80°
2026-05-09 12:16 43.56628 122.30901 33044 ft 482 kts 81°
2026-05-09 12:16 43.57183 122.40129 33093 ft 483 kts 82°
2026-05-09 12:17 43.57706 122.49359 33111 ft 483 kts 82°
2026-05-09 12:17 43.58220 122.58574 33092 ft 481 kts 82°
2026-05-09 12:18 43.58726 122.67787 33102 ft 482 kts 82°
2026-05-09 12:18 43.59225 122.77008 33102 ft 482 kts 82°
2026-05-09 12:19 43.59717 122.86232 33102 ft 482 kts 82°
2026-05-09 12:19 43.60201 122.95458 33107 ft 482 kts 82°
2026-05-09 12:20 43.60678 123.04686 33106 ft 482 kts 82°
2026-05-09 12:20 43.61148 123.13914 33117 ft 482 kts 82°
2026-05-09 12:21 43.61688 123.23121 33104 ft 481 kts 80°
2026-05-09 12:21 43.62289 123.32322 33113 ft 481 kts 81°
2026-05-09 12:22 43.62871 123.41460 33110 ft 481 kts 81°
2026-05-09 12:22 43.63450 123.50668 33112 ft 481 kts 81°
2026-05-09 12:23 43.64022 123.59869 33123 ft 481 kts 81°
2026-05-09 12:23 43.64586 123.69085 33119 ft 481 kts 81°
2026-05-09 12:24 43.65142 123.78294 33116 ft 482 kts 81°
2026-05-09 12:24 43.65692 123.87513 33117 ft 482 kts 81°
2026-05-09 12:25 43.66234 123.96733 33119 ft 482 kts 81°
2026-05-09 12:25 43.66768 124.05955 33139 ft 482 kts 81°
2026-05-09 12:26 43.67296 124.15177 33117 ft 482 kts 81°
2026-05-09 12:26 43.67817 124.24401 33117 ft 481 kts 81°
2026-05-09 12:27 43.68390 124.33607 33119 ft 481 kts 80°
2026-05-09 12:27 43.68994 124.42804 33121 ft 481 kts 80°
2026-05-09 12:28 43.69588 124.52011 33120 ft 481 kts 81°
2026-05-09 12:28 43.70174 124.61216 33120 ft 481 kts 81°
2026-05-09 12:29 43.70752 124.70422 33120 ft 481 kts 81°
2026-05-09 12:29 43.71323 124.79634 33123 ft 481 kts 81°
2026-05-09 12:30 43.71887 124.88849 33118 ft 481 kts 81°
2026-05-09 12:30 43.72719 125.02680 33131 ft 481 kts 81°
2026-05-09 12:31 43.73531 125.16449 33112 ft 481 kts 81°
2026-05-09 12:32 43.74066 125.25674 33133 ft 481 kts 81°
2026-05-09 12:32 43.74592 125.34890 33113 ft 480 kts 81°
2026-05-09 12:33 43.75111 125.44101 33110 ft 481 kts 81°
2026-05-09 12:33 43.75622 125.53315 33122 ft 480 kts 81°
2026-05-09 12:34 43.76126 125.62527 33118 ft 480 kts 81°
2026-05-09 12:34 43.76623 125.71732 33120 ft 480 kts 82°
2026-05-09 12:35 43.77115 125.80949 33135 ft 480 kts 82°
2026-05-09 12:35 43.76729 125.90175 33147 ft 485 kts 95°
2026-05-09 12:36 43.75787 125.99434 33170 ft 486 kts 94°
2026-05-09 12:36 43.74885 126.08690 33115 ft 485 kts 94°
2026-05-09 12:37 43.73962 126.17936 33128 ft 486 kts 94°
2026-05-09 12:37 43.73030 126.27180 33127 ft 485 kts 95°
2026-05-09 12:38 43.72092 126.36421 33129 ft 486 kts 95°
2026-05-09 12:38 43.71146 126.45655 33127 ft 484 kts 95°
2026-05-09 12:39 43.70194 126.54874 33134 ft 485 kts 95°
2026-05-09 12:39 43.69234 126.64089 33154 ft 485 kts 95°
2026-05-09 12:40 43.68269 126.73290 33131 ft 483 kts 95°
2026-05-09 12:40 43.67297 126.82480 33147 ft 484 kts 95°
2026-05-09 12:41 43.66318 126.91665 33147 ft 484 kts 95°
2026-05-09 12:41 43.65332 127.00850 33135 ft 483 kts 95°
2026-05-09 12:42 43.64337 127.10038 33159 ft 484 kts 95°
2026-05-09 12:42 43.63336 127.19211 33156 ft 484 kts 95°
2026-05-09 12:43 43.62312 127.28393 33172 ft 485 kts 96°
2026-05-09 12:43 43.61164 127.37564 33154 ft 485 kts 96°
2026-05-09 12:44 43.60023 127.46730 33172 ft 485 kts 96°
2026-05-09 12:44 43.58877 127.55889 33162 ft 484 kts 96°
2026-05-09 12:45 43.57731 127.64987 33164 ft 485 kts 96°
2026-05-09 12:45 43.56570 127.74144 33154 ft 485 kts 96°
2026-05-09 12:46 43.55398 127.83306 33151 ft 485 kts 97°
2026-05-09 12:46 43.54217 127.92458 33154 ft 485 kts 97°
2026-05-09 12:47 43.53033 128.01575 33145 ft 482 kts 97°
2026-05-09 12:47 43.51847 128.10653 33145 ft 482 kts 97°
2026-05-09 12:48 43.50652 128.19737 33151 ft 482 kts 97°
2026-05-09 12:48 43.49464 128.28818 33149 ft 482 kts 96°
2026-05-09 12:49 43.48323 128.37904 33165 ft 481 kts 97°
2026-05-09 12:49 43.47173 128.46960 33146 ft 480 kts 97°
2026-05-09 12:50 43.46015 128.56020 33148 ft 480 kts 97°
2026-05-09 12:50 43.44850 128.65067 33149 ft 480 kts 97°
2026-05-09 12:51 43.43678 128.74112 33144 ft 480 kts 97°
2026-05-09 12:51 43.42499 128.83156 33136 ft 480 kts 97°
2026-05-09 12:52 43.41513 128.90674 33144 ft 480 kts 97°
2026-05-09 12:52 43.40321 128.99711 33145 ft 480 kts 97°
2026-05-09 12:53 43.39108 129.08744 33147 ft 481 kts 97°
2026-05-09 12:53 43.37862 129.17800 33124 ft 482 kts 97°
2026-05-09 12:54 43.36611 129.26860 33127 ft 482 kts 97°
2026-05-09 12:54 43.35357 129.35885 33127 ft 481 kts 97°
2026-05-09 12:55 43.34094 129.44921 33112 ft 481 kts 97°
2026-05-09 12:55 43.32825 129.53948 33105 ft 481 kts 98°
2026-05-09 12:56 43.31548 129.62969 33117 ft 481 kts 98°
2026-05-09 12:56 43.30266 129.71984 33105 ft 481 kts 98°
2026-05-09 12:57 43.29258 129.81025 33116 ft 476 kts 89°
2026-05-09 12:57 43.28909 129.90125 33107 ft 478 kts 89°
2026-05-09 12:58 43.28562 129.99226 33115 ft 479 kts 89°
2026-05-09 12:58 43.28211 130.08324 33103 ft 476 kts 89°
2026-05-09 12:59 43.27857 130.17347 32814 ft 475 kts 89°
2026-05-09 12:59 43.27677 130.21838 32258 ft 469 kts 89°
2026-05-09 12:59 43.27498 130.26292 31616 ft 466 kts 89°
2026-05-09 12:59 43.27317 130.30730 30973 ft 465 kts 89°
2026-05-09 13:00 43.27136 130.35140 30328 ft 463 kts 89°
2026-05-09 13:00 43.26954 130.39540 29631 ft 461 kts 89°
2026-05-09 13:00 43.26770 130.43917 28888 ft 459 kts 89°
2026-05-09 13:00 43.26586 130.48283 28162 ft 457 kts 89°
2026-05-09 13:01 43.26400 130.52633 27456 ft 456 kts 89°
2026-05-09 13:01 43.26214 130.56966 26761 ft 454 kts 89°
2026-05-09 13:01 43.26026 130.61286 26095 ft 453 kts 89°
2026-05-09 13:01 43.25838 130.65591 25454 ft 451 kts 89°
2026-05-09 13:02 43.25649 130.69877 24815 ft 450 kts 89°
2026-05-09 13:02 43.25459 130.74148 24197 ft 448 kts 90°
2026-05-09 13:02 43.25267 130.78408 23574 ft 447 kts 90°
2026-05-09 13:03 43.24696 130.90923 21472 ft 442 kts 90°
2026-05-09 13:03 43.24503 130.95116 20799 ft 440 kts 89°
2026-05-09 13:03 43.24307 130.99297 20123 ft 438 kts 90°
2026-05-09 13:04 43.24111 131.03459 19470 ft 437 kts 90°
2026-05-09 13:04 43.23915 131.07601 18825 ft 435 kts 90°
2026-05-09 13:04 43.23719 131.11726 18202 ft 433 kts 90°
2026-05-09 13:04 43.23522 131.15831 17498 ft 431 kts 90°
2026-05-09 13:05 43.23308 131.19862 16832 ft 429 kts 91°
2026-05-09 13:05 43.23018 131.23888 16551 ft 418 kts 91°
2026-05-09 13:05 43.22743 131.27777 16542 ft 401 kts 91°
2026-05-09 13:05 43.22483 131.31512 16512 ft 386 kts 91°
2026-05-09 13:06 43.22230 131.35100 16516 ft 371 kts 90°
2026-05-09 13:06 43.21989 131.38568 16492 ft 365 kts 90°
2026-05-09 13:06 43.21745 131.42033 16347 ft 366 kts 90°
2026-05-09 13:06 43.21411 131.45530 15740 ft 375 kts 99°
2026-05-09 13:07 43.20614 131.48959 15038 ft 379 kts 104°
2026-05-09 13:07 43.19786 131.52360 14375 ft 373 kts 104°
2026-05-09 13:07 43.18976 131.55711 13731 ft 368 kts 104°
2026-05-09 13:07 43.18177 131.59017 13016 ft 363 kts 104°
2026-05-09 13:08 43.17338 131.62255 12297 ft 361 kts 112°
2026-05-09 13:08 43.15809 131.64975 11576 ft 364 kts 140°
2026-05-09 13:08 43.13562 131.66498 10887 ft 361 kts 169°
2026-05-09 13:08 43.11108 131.66476 10192 ft 350 kts 199°
2026-05-09 13:09 43.09031 131.64957 9502 ft 333 kts 229°
2026-05-09 13:09 43.07803 131.62422 8815 ft 314 kts 257°
2026-05-09 13:09 43.07577 131.59564 8170 ft 297 kts 282°
2026-05-09 13:09 43.08134 131.56912 7554 ft 287 kts 294°
2026-05-09 13:10 43.08841 131.54379 6957 ft 283 kts 296°
2026-05-09 13:10 43.09562 131.51888 6387 ft 281 kts 294°
2026-05-09 13:10 43.10247 131.49393 5773 ft 279 kts 294°
2026-05-09 13:10 43.10890 131.46887 5159 ft 278 kts 292°
2026-05-09 13:11 43.11728 131.44557 4525 ft 269 kts 311°
2026-05-09 13:11 43.13122 131.42959 3915 ft 259 kts 334°
2026-05-09 13:11 43.14849 131.42357 3428 ft 257 kts 356°
2026-05-09 13:11 43.16573 131.42767 3251 ft 247 kts 19°
2026-05-09 13:12 43.18002 131.44003 3166 ft 245 kts 37°
2026-05-09 13:12 43.19081 131.45828 3388 ft 252 kts 57°
2026-05-09 13:12 43.19721 131.48103 3797 ft 259 kts 66°
2026-05-09 13:12 43.20306 131.50437 4149 ft 258 kts 65°
2026-05-09 13:13 43.20888 131.52769 4582 ft 261 kts 65°
2026-05-09 13:13 43.21483 131.55157 4872 ft 266 kts 65°
2026-05-09 13:13 43.22081 131.57569 4943 ft 267 kts 65°
2026-05-09 13:13 43.22678 131.59982 4951 ft 267 kts 66°
2026-05-09 13:14 43.23271 131.62388 4946 ft 265 kts 66°
2026-05-09 13:14 43.23854 131.64749 4974 ft 266 kts 67°
2026-05-09 13:16 43.28008 131.81664 4944 ft 267 kts 67°
2026-05-09 13:16 43.28606 131.84112 4942 ft 267 kts 66°
2026-05-09 13:16 43.29192 131.86510 4693 ft 271 kts 67°
2026-05-09 13:16 43.29790 131.88959 4343 ft 268 kts 67°
2026-05-09 13:17 43.30376 131.91363 3871 ft 265 kts 66°
2026-05-09 13:17 43.31034 131.93709 3292 ft 262 kts 57°
2026-05-09 13:17 43.31953 131.95858 2915 ft 254 kts 54°
2026-05-09 13:17 43.32819 131.97944 2524 ft 248 kts 56°
2026-05-09 13:18 43.33639 131.99981 2197 ft 240 kts 57°
2026-05-09 13:18 43.34428 132.01936 1886 ft 234 kts 57°
2026-05-09 13:18 43.35192 132.03827 1571 ft 218 kts 58°
2026-05-09 13:18 43.35898 132.05575 1282 ft 201 kts 58°
2026-05-09 13:19 43.36566 132.07228 1062 ft 195 kts 58°
2026-05-09 13:19 43.37200 132.08795 819 ft 179 kts 59°
2026-05-09 13:19 43.37762 132.10192 597 ft 154 kts 59°
2026-05-09 13:19 43.38266 132.11433 390 ft 148 kts 59°
2026-05-09 13:20 43.38766 132.12678 116 ft 146 kts 58°
2026-05-09 13:20 43.39238 132.13837 38 ft 123 kts 59°
2026-05-09 13:20 43.39539 132.14579 36 ft 57 kts 61°
2026-05-09 13:20 43.39701 132.14977 34 ft 47 kts 60°
2026-05-09 13:21 43.39857 132.15366 35 ft 47 kts 63°
2026-05-09 13:21 43.40014 132.15754 34 ft 46 kts 60°
2026-05-09 13:21 43.40170 132.16134 35 ft 45 kts 62°
2026-05-09 13:21 43.40317 132.16506 35 ft 44 kts 62°
2026-05-09 13:22 43.40424 132.16783 34 ft 22 kts 77°
2026-05-09 13:22 43.40338 132.16920 35 ft 20 kts 154°
2026-05-09 13:22 43.40245 132.16932 35 ft 10 kts 223°
2026-05-09 13:23 43.39959 132.16428 35 ft 20 kts 243°
2026-05-09 13:23 43.39872 132.16327 34 ft 14 kts 161°
2026-05-09 13:24 43.39793 132.16410 35 ft 15 kts 124°
2026-05-09 13:24 43.39732 132.16472 34 ft 0 kts 152°
2026-05-09 13:24 43.39723 132.16478 35 ft 0 kts 150°